Kaltag, AK

4:16 AM AKST on December 04, 2016 (GMT -0900)
Kaltag

Weather History for PAKV - January, 2013

Change the Weather History Date:

Sunday, January 13, 2013

  Actual Average (PAGA) Record (PAGA)
Temperature  
Mean Temperature 39 °F -  
Max Temperature 48 °F -5 °F 37 °F (1993)
Min Temperature 30 °F -21 °F -57 °F (1951)
Degree Days  
Heating Degree Days 26    
Moisture  
Dew Point 28 °F    
Average Humidity 78    
Maximum Humidity 85    
Minimum Humidity 54    
Precipitation  
Precipitation 0.15 in - - ()
Sea Level Pressure  
Sea Level Pressure 29.46 in    
Wind  
Wind Speed 2 mph (NE)    
Max Wind Speed 5 mph    
Max Gust Speed -    
Visibility 8 miles    
Events Snow    
Averages and records for this station are not official NWS values.
T = Trace of Precipitation, MM = Missing Value Source: NWS Daily Summary

Daily Weather History Graph

Daily Weather History Graph

Search for Another Location

Airport or City:

Trip Planner

Search our weather history database for the weather conditions in past years. The results will help you decide how hot, cold, wet, or windy it might be!

Date:

Astronomy

Jan. 13, 2013 Rise Set
Actual Time 11:07 AM AKST 4:20 PM AKST
Civil Twilight 9:58 AM AKST 5:30 PM AKST
Nautical Twilight 8:53 AM AKST 6:35 PM AKST
Astronomical Twilight 7:54 AM AKST 7:33 PM AKST
Moon 10:53 AM AKST (1/13) 8:41 PM AKST (1/13)
Length of Visible Light 7h 31m
Length of Day
5h 13m
Waxing Crescent, 6% of the Moon is Illuminated
Jan 13
Waxing Crescent
Jan 18
First Quarter
Jan 26
Full
Feb 3
Last Quarter
Feb 9
New

Hourly Weather History & Observations

Time (AKST) Temp. Windchill Dew Point Humidity Pressure Visibility Wind Dir Wind Speed Gust Speed Precip Events Conditions
12:03 AM 30.2 °F 25.4 °F 24.8 °F 80% 29.42 in 1.2 mi NE 4.6 mph - 0.01 in Snow Light Snow
12:25 AM 30.2 °F 25.4 °F 24.8 °F 80% 29.42 in 1.2 mi ENE 4.6 mph - 0.04 in Snow Light Snow
12:53 AM 30.9 °F - 24.1 °F 76% 29.43 in 1.2 mi Calm Calm - 0.07 in Snow Light Snow
1:06 AM 30.2 °F 26.7 °F 24.8 °F 80% 29.42 in 3.0 mi NE 3.5 mph - 0.01 in Snow Light Snow
1:20 AM 30.2 °F - 24.8 °F 80% 29.43 in 2.5 mi Calm Calm - 0.02 in Snow Light Snow
1:46 AM 32.0 °F - 24.8 °F 75% 29.43 in 2.0 mi Calm Calm - 0.03 in   Haze
1:53 AM 30.9 °F - 26.1 °F 82% 29.44 in 2.5 mi Calm Calm - 0.03 in   Haze
2:02 AM 33.8 °F - 26.6 °F 75% 29.43 in 3.0 mi Calm Calm - N/A   Haze
2:27 AM 30.2 °F - 24.8 °F 80% 29.45 in 3.0 mi Calm Calm - N/A   Haze
3:53 AM 32.0 °F - 25.0 °F 75% 29.47 in 10.0 mi Calm Calm - N/A   Overcast
4:26 AM 32.0 °F - 26.6 °F 80% 29.45 in 10.0 mi Calm Calm - 0.00 in   Overcast
4:41 AM 32.0 °F - 26.6 °F 80% 29.44 in 10.0 mi Calm Calm - 0.00 in   Overcast
4:53 AM 33.1 °F 30.0 °F 27.0 °F 78% 29.46 in 6.0 mi NNE 3.5 mph - 0.01 in Snow Light Snow
5:27 AM 33.8 °F 30.8 °F 26.6 °F 75% 29.45 in 10.0 mi East 3.5 mph - 0.00 in   Overcast
5:53 AM 32.0 °F 28.7 °F 27.0 °F 82% 29.46 in 10.0 mi NNE 3.5 mph - 0.01 in   Overcast
6:20 AM 35.6 °F - 26.6 °F 70% 29.45 in 10.0 mi Calm Calm - N/A   Overcast
6:53 AM 33.1 °F 30.0 °F 27.0 °F 78% 29.46 in 7.0 mi NNE 3.5 mph - N/A   Overcast
7:34 AM 33.8 °F - 28.4 °F 81% 29.45 in 9.0 mi Calm Calm - N/A   Overcast
7:53 AM 33.1 °F - 28.0 °F 82% 29.47 in 10.0 mi Calm Calm - N/A   Overcast
8:53 AM 34.0 °F - 28.9 °F 82% 29.47 in 9.0 mi Calm Calm - N/A   Overcast
9:53 AM 35.1 °F - 30.0 °F 82% 29.49 in 10.0 mi Calm Calm - N/A   Overcast
10:23 AM 35.6 °F - 30.2 °F 81% 29.48 in 10.0 mi Calm Calm - N/A   Overcast
10:53 AM 35.1 °F - 30.0 °F 82% 29.49 in 6.0 mi Calm Calm - N/A   Haze
11:08 AM 35.6 °F - 30.2 °F 81% 29.48 in 9.0 mi Calm Calm - N/A   Overcast
11:53 AM 37.0 °F - 30.9 °F 79% 29.50 in 5.0 mi Calm Calm - 0.02 in   Haze
12:53 PM 37.0 °F - 32.0 °F 82% 29.50 in 9.0 mi Calm Calm - 0.01 in   Overcast
1:02 PM 37.4 °F - 30.2 °F 75% 29.49 in 10.0 mi Calm Calm - N/A   Overcast
1:53 PM 39.0 °F - 32.0 °F 76% 29.51 in 10.0 mi Calm Calm - N/A   Overcast
2:53 PM 48.0 °F - 32.0 °F 54% 29.50 in 10.0 mi Variable 3.5 mph - N/A   Mostly Cloudy
3:53 PM 42.1 °F - 32.0 °F 67% 29.49 in 10.0 mi Calm Calm - N/A   Overcast
4:53 PM 37.0 °F - 32.0 °F 82% 29.49 in 10.0 mi Calm Calm - N/A   Overcast
5:53 PM 41.0 °F 39.0 °F 32.0 °F 70% 29.48 in 10.0 mi South 3.5 mph - N/A   Overcast
6:53 PM 37.9 °F - 32.0 °F 79% 29.48 in 10.0 mi Calm Calm - N/A   Overcast
7:53 PM 34.0 °F - 30.0 °F 85% 29.48 in 10.0 mi Calm Calm - N/A   Clear
8:53 PM 34.0 °F - 28.9 °F 82% 29.47 in 10.0 mi Calm Calm - N/A   Overcast
9:53 PM 36.0 °F 32.1 °F 30.0 °F 79% 29.46 in 10.0 mi ENE 4.6 mph - N/A   Overcast
10:53 PM 36.0 °F 33.3 °F 30.9 °F 82% 29.44 in 10.0 mi ENE 3.5 mph - N/A   Overcast
11:20 PM 37.4 °F 34.9 °F 30.2 °F 75% 29.42 in 10.0 mi NE 3.5 mph - N/A   Overcast
11:53 PM 37.0 °F 33.3 °F 30.9 °F 79% 29.41 in 10.0 mi NE 4.6 mph - 0.00 in   Overcast